EW0624 Weather Reports


Display with metric or nautical units.
time (UTC)temp
F
wind
direction
speed
MPH
gust
MPH
rain 1hr
in
rain 24hr
in
rain mn
in
humidity
%
barometer
mb
20260509180903 64 152 1.0 3.0 0.01 0.18 0.18 81 1004.7
20260509180403 64 134 0.0 3.0 0.00 0.17 0.17 80 1004.4
20260509175903 64 81 1.0 3.0 0.00 0.17 0.17 79 1004.3
20260509175403 64 25 3.0 8.0 0.00 0.17 0.17 79 1004.1
20260509174903 64 23 5.0 10.0 0.00 0.17 0.17 78 1003.9
20260509174403 64 34 7.0 12.0 0.00 0.17 0.17 78 1003.8
20260509173903 64 40 6.0 12.0 0.00 0.17 0.17 78 1003.9
20260509173403 64 30 4.0 9.0 0.00 0.17 0.17 78 1003.8
20260509172903 64 11 6.0 10.0 0.00 0.17 0.17 78 1003.9
20260509172403 64 11 9.0 12.0 0.00 0.17 0.17 77 1003.8
20260509171903 64 15 9.0 13.0 0.00 0.17 0.17 77 1003.9
20260509171404 64 70 8.0 12.0 0.00 0.17 0.17 76 1003.8
20260509170903 64 42 10.0 15.0 0.01 0.17 0.17 76 1003.7
20260509165903 64 32 8.0 12.0 0.01 0.17 0.17 75 1003.8
20260509165403 64 44 8.0 14.0 0.01 0.17 0.17 75 1003.8
20260509164903 64 48 9.0 16.0 0.01 0.17 0.17 74 1003.8
20260509164403 64 52 7.0 12.0 0.01 0.17 0.17 74 1003.7
20260509163903 64 43 7.0 12.0 0.01 0.17 0.17 73 1003.8
20260509163403 64 52 10.0 14.0 0.01 0.17 0.17 73 1003.8
20260509162903 64 59 6.0 14.0 0.01 0.17 0.17 76 1003.9
20260509162403 64 73 13.0 16.0 0.01 0.17 0.17 77 1003.8
20260509161903 64 79 9.0 12.0 0.01 0.17 0.17 77 1003.8
20260509161403 63 71 6.0 13.0 0.01 0.17 0.17 83 1003.7
20260509160904 63 71 2.0 10.0 0.00 0.17 0.17 86 1003.7
20260509160403 63 34 4.0 12.0 0.00 0.17 0.17 86 1003.8
20260509155903 63 65 6.0 13.0 0.00 0.17 0.17 86 1003.9
20260509155403 63 37 5.0 12.0 0.00 0.17 0.17 86 1004.1
20260509154903 62 80 2.0 7.0 0.00 0.18 0.17 86 1004.1
20260509154403 62 46 5.0 12.0 0.00 0.19 0.17 86 1004.1
20260509153903 61 61 6.0 12.0 0.01 0.20 0.17 87 1004.2
20260509153403 61 92 4.0 8.0 0.02 0.20 0.17 87 1004.2
20260509152903 60 64 5.0 8.0 0.04 0.20 0.17 88 1004.5
20260509152403 60 96 2.0 3.0 0.04 0.20 0.17 88 1004.6
20260509151903 60 101 1.0 3.0 0.04 0.21 0.17 89 1004.7
20260509150903 60 90 1.0 8.0 0.04 0.21 0.17 90 1004.8
20260509150403 60 88 3.0 6.0 0.04 0.21 0.17 91 1004.8
20260509145903 59 84 3.0 7.0 0.04 0.21 0.17 91 1004.9
20260509145403 59 99 1.0 5.0 0.04 0.21 0.17 92 1004.9
20260509144903 59 87 1.0 10.0 0.04 0.21 0.17 91 1005.0
20260509144403 59 134 5.0 12.0 0.05 0.21 0.17 91 1005.1
20260509143903 60 109 5.0 15.0 0.08 0.20 0.16 92 1005.4
20260509142903 60 137 4.0 8.0 0.12 0.17 0.13 92 1005.4
20260509141903 61 170 0.0 0.0 0.12 0.17 0.13 91 1005.1
20260509141403 61 170 0.0 1.0 0.12 0.17 0.13 91 1004.9
20260509140903 61 172 2.0 7.0 0.12 0.17 0.13 90 1004.9
20260509140403 61 183 5.0 8.0 0.12 0.17 0.13 89 1004.9
20260509135903 62 182 2.0 6.0 0.12 0.17 0.13 87 1004.9
20260509135403 62 141 2.0 6.0 0.12 0.17 0.13 86 1004.8
20260509134903 62 51 5.0 8.0 0.12 0.17 0.13 84 1004.7
20260509133903 65 121 6.0 16.0 0.07 0.13 0.08 77 1005.0
20260509133403 67 136 6.0 18.0 0.03 0.09 0.04 70 1004.7
20260509132903 67 110 3.0 8.0 0.00 0.06 0.01 68 1004.5
20260509132403 67 118 2.0 8.0 0.00 0.06 0.01 67 1004.4
20260509131903 67 93 0.0 3.0 0.00 0.06 0.01 67 1004.4
20260509131403 67 79 2.0 8.0 0.00 0.06 0.01 66 1004.4
20260509130903 67 118 2.0 9.0 0.00 0.06 0.01 65 1004.5
20260509125904 68 107 2.0 9.0 0.00 0.06 0.01 64 1004.5
20260509125403 68 59 1.0 12.0 0.00 0.06 0.01 64 1004.5
20260509124903 68 136 0.0 2.0 0.00 0.06 0.01 64 1004.7
20260509123903 67 103 2.0 7.0 0.00 0.06 0.01 64 1004.9
20260509122903 67 46 6.0 12.0 0.00 0.06 0.01 64 1005.0
20260509122403 67 54 4.0 9.0 0.00 0.06 0.01 64 1005.1
20260509121903 68 184 2.0 8.0 0.00 0.06 0.01 63 1005.1
20260509121403 68 78 2.0 8.0 0.00 0.06 0.01 63 1005.1
20260509120903 67 111 2.0 8.0 0.00 0.06 0.01 64 1005.1
20260509120403 67 138 6.0 12.0 0.00 0.06 0.01 64 1005.2
20260509115903 67 154 1.0 9.0 0.00 0.06 0.01 65 1005.2
20260509114903 66 191 3.0 10.0 0.00 0.06 0.01 66 1005.4
20260509114403 66 157 7.0 12.0 0.00 0.06 0.01 65 1005.5
20260509113903 66 165 7.0 12.0 0.00 0.06 0.01 64 1005.6
20260509113403 66 167 3.0 14.0 0.00 0.06 0.01 65 1005.7
20260509112903 66 166 1.0 15.0 0.00 0.06 0.01 66 1005.7
20260509112403 65 201 3.0 12.0 0.00 0.06 0.01 67 1005.8
20260509111903 65 143 7.0 14.0 0.00 0.06 0.01 67 1005.9
20260509111403 64 224 5.0 8.0 0.00 0.06 0.01 70 1005.9
20260509110903 64 160 3.0 9.0 0.00 0.06 0.01 71 1005.9
20260509110404 63 127 0.0 3.0 0.00 0.06 0.01 73 1006.1
20260509105403 63 215 2.0 6.0 0.00 0.06 0.01 74 1006.2
20260509104903 64 175 1.0 7.0 0.00 0.06 0.01 74 1006.4
20260509104403 64 192 3.0 6.0 0.00 0.06 0.01 75 1006.5
20260509103903 63 57 0.0 1.0 0.00 0.07 0.01 78 1006.4
20260509103403 63 57 0.0 2.0 0.00 0.07 0.01 80 1006.5
20260509102903 62 55 1.0 3.0 0.00 0.09 0.01 80 1006.5
20260509102403 62 64 1.0 3.0 0.00 0.09 0.01 81 1006.6
20260509101903 62 63 0.0 3.0 0.00 0.12 0.01 82 1006.5
20260509101403 62 13 2.0 5.0 0.00 0.13 0.01 82 1006.5
20260509095903 61 282 0.0 0.0 0.00 0.14 0.01 84 1006.5
20260509095404 60 282 0.0 1.0 0.00 0.14 0.01 84 1006.5
20260509094903 60 282 1.0 3.0 0.00 0.15 0.01 84 1006.4
20260509094403 60 282 0.0 2.0 0.00 0.15 0.01 84 1006.4
20260509093903 60 282 1.0 3.0 0.00 0.15 0.01 84 1006.4
20260509093403 61 279 1.0 3.0 0.00 0.15 0.01 84 1006.4
20260509091903 61 310 0.0 1.0 0.00 0.15 0.01 86 1006.4
20260509091403 60 309 0.0 1.0 0.00 0.15 0.01 89 1006.4
20260509090904 59 307 0.0 1.0 0.00 0.15 0.01 91 1006.5
20260509084903 56 292 0.0 7.0 0.00 0.15 0.01 95 1006.5
20260509084404 55 280 1.0 5.0 0.00 0.16 0.01 96 1006.6
20260509083904 55 290 0.0 0.0 0.00 0.16 0.01 97 1006.6
20260509083403 54 290 0.0 0.0 0.00 0.17 0.01 97 1006.4
20260509082903 54 290 1.0 3.0 0.00 0.17 0.01 97 1006.6
20260509082403 54 15 0.0 1.0 0.00 0.17 0.01 98 1006.6
20260509081903 54 24 1.0 3.0 0.00 0.17 0.01 98 1006.5
20260509080903 53 303 0.0 0.0 0.00 0.17 0.01 98 1006.7
20260509080403 52 303 1.0 3.0 0.00 0.17 0.01 99 1006.6
20260509075903 52 336 0.0 3.0 0.00 0.17 0.01 99 1006.6
20260509075403 52 336 0.0 2.0 0.00 0.17 0.01 99 1006.6
20260509074903 52 288 1.0 3.0 0.00 0.17 0.01 99 1006.5
20260509074406 52 274 0.0 0.0 0.00 0.17 0.01 99 1006.5
20260509073905 51 274 0.0 0.0 0.00 0.17 0.01 99 1006.5
20260509073403 51 275 0.0 0.0 0.00 0.17 0.01 99 1006.6
20260509072904 50 240 0.0 1.0 0.00 0.17 0.01 99 1006.6
20260509072403 50 240 1.0 3.0 0.00 0.17 0.01 99 1006.6
20260509070903 50 217 2.0 5.0 0.00 0.17 0.01 99 1006.8
20260509070403 50 284 3.0 8.0 0.00 0.17 0.01 99 1006.8
20260509065903 50 188 1.0 3.0 0.00 0.17 0.01 99 1006.8
20260509065404 50 179 1.0 3.0 0.00 0.17 0.01 99 1006.8
20260509064903 50 180 0.0 3.0 0.00 0.17 0.01 99 1006.8
20260509064404 50 178 3.0 5.0 0.00 0.17 0.01 99 1006.7
20260509063903 50 171 0.0 0.0 0.00 0.17 0.01 99 1006.7
20260509063403 50 172 0.0 0.0 0.00 0.17 0.01 99 1006.7
20260509062903 49 172 0.0 2.0 0.00 0.17 0.01 99 1006.6
20260509062403 49 175 4.0 7.0 0.00 0.17 0.01 99 1006.8
20260509061903 49 334 0.0 0.0 0.00 0.17 0.01 99 1006.6
20260509060903 49 266 0.0 0.0 0.00 0.17 0.01 99 1006.7
20260509055903 49 284 0.0 2.0 0.00 0.17 0.01 99 1006.8
20260509054903 49 206 2.0 3.0 0.00 0.17 0.01 99 1006.5
20260509053903 50 232 0.0 0.0 0.00 0.17 0.01 99 1006.4
20260509053403 50 232 0.0 0.0 0.00 0.17 0.01 99 1006.5
20260509052903 50 232 0.0 0.0 0.00 0.17 0.01 99 1006.5
20260509052403 50 232 0.0 0.0 0.01 0.17 0.01 99 1006.5
20260509051906 50 232 0.0 0.0 0.01 0.17 0.01 99 1006.5
20260509051406 50 232 1.0 3.0 0.01 0.17 0.01 99 1006.5
20260509050924 50 171 0.0 0.0 0.01 0.17 0.01 99 1006.5
20260509050404 50 172 1.0 3.0 0.01 0.17 0.01 99 1006.5
20260509045903 50 171 0.0 6.0 0.01 0.17 0.01 99 1006.4
20260509045403 50 169 0.0 0.0 0.01 0.17 0.01 99 1006.2
20260509044903 50 182 0.0 0.0 0.01 0.17 0.01 99 1006.2
20260509044403 50 182 0.0 2.0 0.01 0.17 0.01 99 1006.3
20260509043903 50 184 0.0 0.0 0.01 0.17 0.01 99 1006.4
20260509043403 50 184 0.0 0.0 0.01 0.17 0.01 99 1006.4
20260509042903 50 184 0.0 0.0 0.01 0.17 0.01 99 1006.4
20260509042403 50 184 0.0 0.0 0.00 0.16 0.00 99 1006.3
20260509041903 50 184 0.0 0.0 0.00 0.16 0.00 99 1006.4
20260509041403 50 184 0.0 0.0 0.00 0.16 0.00 99 1006.4
20260509040903 50 184 0.0 0.0 0.00 0.16 0.00 99 1006.6
20260509040403 49 182 0.0 5.0 0.00 0.16 0.00 100 1006.7
20260509035903 49 182 0.0 3.0 0.00 0.16 0.00 100 1006.7
20260509035403 49 182 0.0 0.0 0.00 0.16 0.00 100 1006.6
20260509034903 49 182 0.0 0.0 0.00 0.16 0.00 100 1006.6
20260509034403 49 183 0.0 0.0 0.00 0.16 0.00 100 1006.7
20260509033903 49 183 0.0 0.0 0.00 0.16 0.00 99 1006.8
20260509032403 49 190 0.0 0.0 0.00 0.16 0.00 99 1007.1
20260509030903 49 189 0.0 0.0 0.00 0.16 0.00 99 1007.3
20260509030403 49 189 0.0 0.0 0.00 0.16 0.00 99 1007.2
20260509025903 49 189 0.0 0.0 0.00 0.16 0.00 99 1007.3
20260509025403 50 190 2.0 5.0 0.00 0.16 0.00 99 1007.4
20260509024403 50 184 0.0 0.0 0.00 0.16 0.00 99 1007.3
20260509023903 50 186 0.0 3.0 0.00 0.16 0.00 99 1007.3
20260509023403 50 185 0.0 3.0 0.00 0.16 0.00 99 1007.2
20260509022903 50 186 0.0 0.0 0.00 0.16 0.00 99 1007.4
20260509022403 50 186 1.0 3.0 0.00 0.16 0.00 99 1007.4
20260509021903 50 179 5.0 7.0 0.00 0.16 0.00 99 1007.5
20260509020403 50 178 0.0 0.0 0.00 0.16 0.00 99 1007.6
20260509015903 50 178 0.0 0.0 0.00 0.16 0.00 99 1007.8
20260509015403 50 178 0.0 0.0 0.00 0.16 0.00 99 1007.9
20260509014903 51 178 0.0 0.0 0.00 0.16 0.00 99 1008.0
20260509014403 51 178 0.0 0.0 0.00 0.16 0.00 99 1008.0
20260509013903 51 178 0.0 0.0 0.00 0.16 0.00 99 1008.1
20260509013404 51 177 0.0 3.0 0.00 0.16 0.00 99 1008.0
20260509011903 51 178 0.0 1.0 0.00 0.16 0.00 98 1008.1
20260509011403 51 178 2.0 6.0 0.00 0.16 0.00 99 1008.2
20260509010903 51 179 2.0 7.0 0.00 0.16 0.00 98 1008.2
20260509010403 51 174 1.0 3.0 0.00 0.16 0.00 98 1008.2
20260509005904 51 174 2.0 5.0 0.00 0.16 0.00 98 1008.3
20260509005403 51 175 2.0 3.0 0.00 0.16 0.00 98 1008.3
20260509004903 51 175 2.0 5.0 0.00 0.16 0.00 98 1008.3
20260509004403 52 86 1.0 3.0 0.00 0.16 0.00 98 1008.4
20260509003903 52 76 0.0 1.0 0.00 0.16 0.00 98 1008.4
20260509003403 52 74 0.0 0.0 0.00 0.16 0.00 98 1008.5
20260509002903 52 74 0.0 0.0 0.00 0.16 0.00 98 1008.5
20260509001403 52 74 0.0 0.0 0.00 0.16 0.00 98 1008.6
20260509000903 52 74 0.0 0.0 0.00 0.16 0.00 98 1008.7
20260508235903 53 74 0.0 0.0 0.00 0.16 0.00 98 1008.9
20260508235403 53 74 0.0 0.0 0.00 0.16 0.00 98 1008.9
20260508234903 53 74 0.0 0.0 0.00 0.16 0.00 98 1008.9
20260508234403 53 74 0.0 0.0 0.00 0.16 0.00 98 1009.0
20260508233903 53 74 0.0 0.0 0.00 0.16 0.00 98 1009.0
20260508233403 53 74 0.0 0.0 0.00 0.16 0.00 97 1009.0
20260508232403 53 74 0.0 0.0 0.00 0.16 0.00 98 1009.1
20260508231903 53 74 0.0 0.0 0.00 0.16 0.00 98 1009.1
20260508231403 53 74 0.0 0.0 0.00 0.16 0.00 98 1009.1
20260508230403 53 74 0.0 0.0 0.00 0.16 0.00 98 1009.1
20260508225903 53 74 0.0 0.0 0.00 0.16 0.00 98 1009.1
20260508225403 53 74 0.0 0.0 0.00 0.16 0.00 98 1009.2
20260508224903 53 74 0.0 2.0 0.00 0.16 0.00 98 1009.3
20260508224403 53 75 0.0 1.0 0.00 0.16 0.00 98 1009.2
20260508223903 53 75 0.0 1.0 0.00 0.16 0.00 98 1009.3
20260508223403 53 75 0.0 3.0 0.00 0.16 0.00 98 1009.3
20260508222903 53 74 0.0 0.0 0.00 0.16 0.00 97 1009.3
20260508222403 53 73 0.0 0.0 0.00 0.16 0.00 97 1009.3
20260508221403 53 74 1.0 3.0 0.00 0.16 0.00 97 1009.4
20260508220903 53 91 1.0 3.0 0.00 0.16 0.00 97 1009.5
20260508220403 53 93 1.0 3.0 0.00 0.16 0.00 97 1009.7
20260508215903 53 74 0.0 2.0 0.00 0.16 0.16 97 1009.6
20260508215403 53 74 0.0 0.0 0.00 0.16 0.16 97 1009.6
20260508214903 53 74 0.0 0.0 0.00 0.16 0.16 97 1009.7
20260508213903 53 74 0.0 0.0 0.00 0.16 0.16 97 1009.9
20260508213403 53 74 0.0 0.0 0.00 0.16 0.16 97 1009.9
20260508212904 53 74 1.0 2.0 0.00 0.16 0.16 97 1009.9
20260508212403 53 71 0.0 0.0 0.00 0.16 0.16 97 1009.9
20260508211903 53 71 0.0 2.0 0.00 0.16 0.16 97 1009.8
20260508211403 54 72 1.0 2.0 0.00 0.16 0.16 97 1009.9
20260508210904 54 73 0.0 2.0 0.00 0.16 0.16 97 1010.0
20260508210404 54 73 0.0 1.0 0.00 0.16 0.16 97 1010.0
20260508205903 54 72 0.0 0.0 0.00 0.16 0.16 97 1009.9
20260508205403 54 72 0.0 3.0 0.00 0.16 0.16 97 1009.9
20260508204903 54 73 0.0 3.0 0.00 0.16 0.16 97 1009.9
20260508204403 54 75 0.0 3.0 0.00 0.16 0.16 97 1009.9
20260508203903 54 71 1.0 5.0 0.00 0.16 0.16 97 1009.9
20260508202903 54 81 0.0 3.0 0.00 0.16 0.16 97 1009.9
20260508202403 54 81 0.0 0.0 0.00 0.16 0.16 97 1009.9
20260508201403 54 80 0.0 0.0 0.00 0.16 0.16 97 1009.8
20260508200903 54 80 0.0 0.0 0.00 0.16 0.16 97 1009.8
20260508200403 54 81 0.0 3.0 0.00 0.16 0.16 96 1009.6
20260508195903 54 356 0.0 2.0 0.00 0.16 0.16 96 1009.6
20260508195403 54 355 3.0 10.0 0.00 0.16 0.16 96 1009.5
20260508194903 55 326 6.0 9.0 0.00 0.16 0.16 96 1009.4
20260508194403 55 287 1.0 3.0 0.00 0.16 0.16 95 1009.4
20260508193903 55 288 0.0 3.0 0.00 0.16 0.16 95 1009.4
20260508193403 56 288 0.0 0.0 0.00 0.16 0.16 94 1009.4
20260508192903 56 288 0.0 0.0 0.00 0.16 0.16 93 1009.2
20260508192403 56 289 3.0 8.0 0.00 0.16 0.16 92 1009.3
20260508191903 56 312 4.0 6.0 0.00 0.16 0.16 90 1009.2
20260508191403 56 34 0.0 0.0 0.00 0.16 0.16 89 1009.2
20260508190903 56 34 0.0 0.0 0.00 0.16 0.16 89 1009.1
20260508190403 56 34 0.0 1.0 0.00 0.16 0.16 89 1009.1
20260508185903 56 34 2.0 3.0 0.00 0.16 0.16 89 1008.9
20260508184903 56 30 2.0 5.0 0.00 0.16 0.16 89 1008.9
20260508184403 56 22 0.0 3.0 0.00 0.16 0.16 90 1008.9
20260508183903 56 17 2.0 7.0 0.00 0.16 0.16 90 1008.8
20260508183403 55 40 2.0 3.0 0.00 0.16 0.16 92 1008.8
20260508182903 55 44 2.0 3.0 0.00 0.16 0.16 92 1008.7
20260508182403 55 45 4.0 6.0 0.00 0.16 0.16 93 1008.7